User: anonymous   Login
Location: *
(46.1866°S, 178.5290°W)
Time: 16:23:58
(UTC+00:00)
Language:

Cosmos 1689 Rocket - Orbit

View from above orbital plane
View from above orbital plane
View from above satellite
View from above satellite

Ground track
Ground track

The orbit data is extracted from the following two-line orbital elements,

1 16111U 85090B   21207.56655977  .00019360  00000-0  13376-3 0  9996
2 16111  97.4724  53.5835 0008282 184.5497 175.5694 15.74553600978379
Epoch (UTC): 26 July 2021 13:35:50
Eccentricity: 0.0008282
inclination: 97.4724°
perigee height: 340 km
apogee height: 351 km
right ascension of ascending node: 53.5835°
argument of perigee: 184.5497°
revolutions per day: 15.74553600
mean anomaly at epoch: 175.5694°
orbit number at epoch: 97837

The dashed part of the orbit path shows where the satellite is in the earth's shadow,  

DLR